Location: London
(51.5166°N, 0.1046°W)
Time: 12:27:35
(UTC+01:00)

ISS - Visible Passes

Search period start: 16 September 2014 00:00
Search period end: 26 September 2014 00:00
Orbit: 414 x 417 km, 51.6° (Epoch: 16 September)

Date Brightness Start Highest point End Pass type
(mag) Time Alt. Az. Time Alt. Az. Time Alt. Az.
16 Sep -1.8 05:17:51 14° SSW 05:20:06 29° SSE 05:23:03 10° E visible
17 Sep -1.4 04:31:13 20° SSE 04:31:34 21° SE 04:34:08 10° E visible
18 Sep -0.3 03:44:31 11° ESE 03:44:31 11° ESE 03:44:53 10° ESE visible
18 Sep -2.8 05:17:24 23° SW 05:19:12 52° SSE 05:22:27 10° E visible
19 Sep -2.3 04:30:37 38° SSE 04:30:37 38° SSE 04:33:38 10° E visible
19 Sep -3.3 06:03:43 10° W 06:07:04 89° S 06:10:25 10° E visible
20 Sep -0.6 03:43:46 16° E 03:43:46 16° E 03:44:41 10° E visible
20 Sep -3.3 05:16:39 29° WSW 05:18:15 79° SSE 05:21:35 10° E visible
21 Sep -2.9 04:29:45 58° SE 04:29:45 58° SE 04:32:43 10° E visible
21 Sep -3.2 06:02:45 10° W 06:06:06 86° N 06:09:27 10° E visible
22 Sep -0.6 03:42:49 18° E 03:42:49 18° E 03:43:48 10° E visible
22 Sep -3.3 05:15:42 30° W 05:17:12 86° N 05:20:33 10° E visible
23 Sep -2.9 04:28:44 63° E 04:28:44 63° E 04:31:36 10° E visible
23 Sep -3.3 06:01:38 10° W 06:05:00 80° S 06:08:20 10° ESE visible
24 Sep -0.5 03:41:46 17° E 03:41:46 17° E 03:42:38 10° E visible
24 Sep -3.4 05:14:38 33° W 05:16:01 90° NNW 05:19:22 10° E visible
25 Sep -2.6 04:27:40 54° E 04:27:40 54° E 04:30:20 10° E visible
25 Sep -3.0 06:00:33 11° W 06:03:39 54° SSW 06:06:54 10° ESE visible
